Airfield :
LOGIN :

Register | Disclaimer

   EN    FR    IT 

 










Legend :    VFR   Marginal VFR   IFR   Intensive IFR   Very Intensive IFR
Visi :
Ceiling :
>= 8 km
>= 3000ft
5 to 8 km
1000 to 3000 ft
1500m to 5 km
500 to 1000 ft
800 to 1500m
200 to 500 ft
< 800m
< 200 ft
Symbols :   Thunderstorms  Fog  Heavy snow  Heavy precipitations  Wind > 20 kt
SIGMETs :     Misc.  Thunderstorms  Icing  Turbulence  Mountain Waves  Volcanic Ashes







- Airport Elevation : 121 ft
- IATA code : HUY
- Download approach charts


EGNJ - Humberside

CURRENT METAR :
  • 192150Z 21015KT 9999 FEW030 SCT045 20/16 Q1018

EXPIRED METARs :
  • 192120Z 21011KT 9999 FEW030 SCT045 21/16 Q1018
  • 192050Z 22011KT 9999 FEW027 SCT046 21/16 Q1018
  • 192020Z 21009KT 9999 FEW027 SCT046 21/16 Q1018
  • 191950Z 22010KT 9999 FEW027 SCT046 21/16 Q1018
  • 191920Z 22011KT 9999 FEW027 SCT046 22/16 Q1018

TAF TAF EGNJ
Valid from the 19 at 21:00 until the 20 at 06:00 UTC


191953Z 1921/2006 21012KT 9999 SCT025
PROB40
TEMPO 1923/2006 22015G25KT
ATIS : +44 1652 682 020
No reported NOTAMs for that airfield.



MET'MAP, your aeronautical weather chart ! - Copyright ORBIFLY December 2007 - Disclaimer

ORBIFLY MET'MAP TEAM :

Programming & Development : Alexandra Zaïnal
Concept & Development : Baudouin d'Aumeries
Co-Development & Prog : Marc-Olivier Méhu
Technical & hardware support : Manuel Goepfert

Contact : metmap@orbifly.com




SOURCES & CREDITS :

   NOAA